ICEYE-X12

导读 | 豆包AI

ICEYE-X12(冰眼X12)是芬兰冰眼公司研发合成孔径雷达遥感卫星,属于冰眼卫星星座组成部分。它于2021年6月30日由猎鹰9号火箭从卡纳维拉尔角发射升空,运行于近极地轨道,轨道高度约574-595千米。该卫星可提供高分辨率合成孔径雷达遥感数据,服务商业及定制化对地观测任务,支持灾害监测、资源勘查等多领域应用。

基本信息
目录编号:
48914
目录名称:
ICEYE-X12
国际标识:
2021-059AM
轨道中心:
EARTH
卫星名称:
ICEYE-X12
卫星全名:
--
卫星状态:
已陨落 最后检测时间 2025-01-22
发射日期:
2021-06-30 UTC
国别 :
(FI)
星等 :
--
轨道信息
数据来源 国际轨道数据
星历时间: 2025-01-18T15:31:55+0800
轨道信息已过期440天
半长轴: 6556.431km
偏心率: 0.0009717
轨道倾角: 97.610°
近地点辐角 299.842°
升交点赤经 177.606°
平近点角 60.191°
近地点: 171.925km
远地点: 184.667km
周期: 88.056分钟
每日圈数: 16.353154
详细信息
使用方式:
暂无